EW5168 Weather Reports


Display with metric or nautical units.
time (UTC)temp
F
wind
direction
speed
MPH
gust
MPH
rain 1hr
in
rain 24hr
in
rain mn
in
humidity
%
barometer
mb
20260904023835 83 142 0.0 2.0 0.00 0.00 0.00 1 1012.3
20260904023333 83 142 1.0 3.0 0.00 0.00 0.00 1 1012.2
20260904022835 83 155 1.0 4.0 0.00 0.00 0.00 1 1012.1
20260904022331 83 148 1.0 4.0 0.00 0.00 0.00 1 1012.0
20260904021828 83 136 1.0 4.0 0.00 0.00 0.00 1 1012.1
20260904021329 84 157 1.0 3.0 0.00 0.00 0.00 1 1012.0
20260904020828 84 106 1.0 3.0 0.00 0.00 0.00 1 1011.9
20260904020333 84 182 1.0 4.0 0.00 0.00 0.00 1 1011.7
20260904020329 84 140 1.0 4.0 0.00 0.00 0.00 1 1011.8
20260904015332 84 159 1.0 4.0 0.00 0.00 0.00 1 1011.5
20260904015328 84 159 1.0 4.0 0.00 0.00 0.00 1 1011.6
20260904014326 84 171 1.0 5.0 0.00 0.00 0.00 1 1011.4
20260904013825 84 134 1.0 5.0 0.00 0.00 0.00 1 1011.4
20260904013324 85 145 2.0 5.0 0.00 0.00 0.00 1 1011.4
20260904012824 85 157 2.0 6.0 0.00 0.00 0.00 1 1011.3
20260904012323 85 181 2.0 7.0 0.00 0.00 0.00 1 1011.1
20260904011823 85 131 2.0 7.0 0.00 0.00 0.00 1 1011.1
20260904011321 85 157 2.0 6.0 0.00 0.00 0.00 1 1011.1
20260904010819 85 125 2.0 6.0 0.00 0.00 0.00 1 1011.1
20260904010319 85 157 2.0 6.0 0.00 0.00 0.00 1 1011.0
20260904005819 85 178 2.0 10.0 0.00 0.00 0.00 1 1011.1
20260904005317 85 159 2.0 10.0 0.00 0.00 0.00 1 1011.1
20260904004818 85 112 2.0 6.0 0.00 0.00 0.00 1 1011.2
20260904004319 85 116 2.0 7.0 0.00 0.00 0.00 1 1011.2
20260904003818 86 136 2.0 8.0 0.00 0.00 0.00 1 1011.3
20260904003318 86 74 2.0 8.0 0.00 0.00 0.00 1 1011.2
20260904002823 86 146 3.0 9.0 0.00 0.00 0.00 1 1011.1
20260904002819 86 141 3.0 7.0 0.00 0.00 0.00 1 1011.2
20260904001816 86 197 3.0 9.0 0.00 0.00 0.00 1 1011.1
20260904001313 86 120 3.0 12.0 0.00 0.00 0.00 1 1011.2
20260904000811 86 172 3.0 12.0 0.00 0.00 0.00 1 1011.1
20260904000312 86 130 3.0 10.0 0.00 0.00 0.00 1 1011.1
20260903235816 87 118 3.0 12.0 0.00 0.00 0.00 1 1011.0
20260903235812 86 143 3.0 12.0 0.00 0.00 0.00 1 1011.1
20260903234811 87 161 3.0 12.0 0.00 0.00 0.00 1 1011.1
20260903234312 87 101 4.0 12.0 0.00 0.00 0.00 1 1011.1
20260903233812 87 101 3.0 11.0 0.00 0.00 0.00 1 1011.0
20260903233312 87 107 3.0 11.0 0.00 0.00 0.00 1 1011.1
20260903232812 88 94 4.0 11.0 0.00 0.00 0.00 1 1010.9
20260903232312 88 88 3.0 8.0 0.00 0.00 0.00 1 1010.9
20260903231810 89 97 3.0 7.0 0.00 0.00 0.00 1 1010.9
20260903231310 89 99 3.0 11.0 0.00 0.00 0.00 7 1010.8
20260903230810 89 78 3.0 11.0 0.00 0.00 0.00 14 1010.7
20260903230310 90 63 3.0 10.0 0.00 0.00 0.00 19 1010.8
20260903225806 90 44 3.0 8.0 0.00 0.00 0.00 21 1010.8
20260903225307 91 150 3.0 8.0 0.00 0.00 0.00 22 1010.7
20260903224806 91 87 3.0 9.0 0.00 0.00 0.00 25 1010.7
20260903224301 91 175 3.0 9.0 0.00 0.00 0.00 26 1010.7
20260903223802 91 167 4.0 9.0 0.00 0.00 0.00 26 1010.7
20260903223300 91 110 4.0 12.0 0.00 0.00 0.00 25 1010.7
20260903222804 91 93 4.0 13.0 0.00 0.00 0.00 25 1010.8
20260903222759 91 113 4.0 12.0 0.00 0.00 0.00 25 1010.8
20260903221804 92 111 3.0 14.0 0.00 0.00 0.00 24 1010.7
20260903221800 92 221 4.0 13.0 0.00 0.00 0.00 24 1010.7
20260903220758 92 129 3.0 14.0 0.00 0.00 0.00 23 1010.7
20260903220258 92 146 4.0 12.0 0.00 0.00 0.00 23 1010.7
20260903215758 91 173 4.0 18.0 0.00 0.00 0.00 24 1010.6
20260903215258 92 148 4.0 18.0 0.00 0.00 0.00 24 1010.7
20260903214756 91 136 4.0 12.0 0.00 0.00 0.00 24 1010.7
20260903214255 92 171 5.0 11.0 0.00 0.00 0.00 24 1010.7
20260903213800 92 98 5.0 15.0 0.00 0.00 0.00 24 1010.7
20260903213756 92 175 5.0 14.0 0.00 0.00 0.00 24 1010.7
20260903212754 93 188 4.0 15.0 0.00 0.00 0.00 24 1010.7
20260903212253 93 167 5.0 15.0 0.00 0.00 0.00 24 1010.7
20260903211751 93 166 4.0 13.0 0.00 0.00 0.00 23 1010.8
20260903211252 93 161 5.0 13.0 0.00 0.00 0.00 23 1010.9
20260903210751 93 69 5.0 13.0 0.00 0.00 0.00 24 1011.0
20260903210252 94 187 4.0 9.0 0.00 0.00 0.00 23 1011.1
20260903205752 95 131 4.0 11.0 0.00 0.00 0.00 23 1011.2
20260903205251 95 130 4.0 11.0 0.00 0.00 0.00 22 1011.2
20260903204749 94 159 5.0 13.0 0.00 0.00 0.00 21 1011.1
20260903204246 94 199 5.0 15.0 0.00 0.00 0.00 21 1011.3
20260903203745 95 142 4.0 15.0 0.00 0.00 0.00 19 1011.3
20260903203244 94 138 5.0 11.0 0.00 0.00 0.00 17 1011.4
20260903202744 93 217 6.0 12.0 0.00 0.00 0.00 15 1011.4
20260903202243 93 136 5.0 12.0 0.00 0.00 0.00 14 1011.5
20260903201741 92 178 5.0 13.0 0.00 0.00 0.00 13 1011.5
20260903201242 92 153 6.0 14.0 0.00 0.00 0.00 12 1011.6
20260903200740 92 165 6.0 16.0 0.00 0.00 0.00 11 1011.6
20260903200240 92 151 6.0 16.0 0.00 0.00 0.00 11 1011.6
20260903195738 92 221 5.0 15.0 0.00 0.00 0.00 10 1011.9
20260903195237 92 112 4.0 16.0 0.00 0.00 0.00 8 1011.8
20260903194738 92 188 5.0 16.0 0.00 0.00 0.00 5 1011.9
20260903194237 92 176 5.0 15.0 0.00 0.00 0.00 6 1011.9
20260903193737 92 88 4.0 12.0 0.00 0.00 0.00 5 1012.0
20260903193241 92 87 3.0 10.0 0.00 0.00 0.00 1 1012.2
20260903193237 92 153 3.0 12.0 0.00 0.00 0.00 5 1012.2
20260903192237 91 161 3.0 10.0 0.00 0.00 0.00 1 1012.3
20260903191738 90 134 3.0 10.0 0.00 0.00 0.00 1 1012.4
20260903191242 89 97 3.0 7.0 0.00 0.00 0.00 1 1012.7
20260903191238 89 142 3.0 10.0 0.00 0.00 0.00 1 1012.5
20260903190236 89 185 3.0 7.0 0.00 0.00 0.00 1 1012.9
20260903185735 88 97 3.0 10.0 0.00 0.00 0.00 1 1012.9
20260903185235 87 93 4.0 10.0 0.00 0.00 0.00 1 1013.1
20260903184735 87 145 4.0 12.0 0.00 0.00 0.00 1 1013.2
20260903184234 87 150 5.0 12.0 0.00 0.00 0.00 1 1013.3
20260903183733 87 136 5.0 12.0 0.00 0.00 0.00 1 1013.3
20260903183235 87 190 3.0 10.0 0.00 0.00 0.00 1 1013.3
20260903183231 87 59 3.0 11.0 0.00 0.00 0.00 1 1013.4
20260903182231 87 57 4.0 15.0 0.00 0.00 0.00 1 1013.4
20260903181731 87 130 4.0 15.0 0.00 0.00 0.00 1 1013.5
20260903181231 86 227 4.0 10.0 0.00 0.00 0.00 1 1013.5
20260903180731 86 106 3.0 10.0 0.00 0.00 0.00 1 1013.6
20260903180231 86 129 3.0 10.0 0.00 0.00 0.00 1 1013.7
20260903175731 86 102 3.0 10.0 0.00 0.00 0.00 1 1013.9
20260903175229 87 132 4.0 10.0 0.00 0.00 0.00 1 1013.9
20260903174729 86 85 4.0 10.0 0.00 0.00 0.00 1 1014.0
20260903174230 86 134 4.0 8.0 0.00 0.00 0.00 1 1014.1
20260903173729 85 120 3.0 8.0 0.00 0.00 0.00 1 1014.2
20260903173229 85 114 2.0 8.0 0.00 0.00 0.00 1 1014.2
20260903172729 85 134 3.0 8.0 0.00 0.00 0.00 1 1014.4
20260903172227 85 96 3.0 9.0 0.00 0.00 0.00 1 1014.4
20260903171727 86 113 2.0 9.0 0.00 0.00 0.00 1 1014.4
20260903171227 86 184 2.0 8.0 0.00 0.00 0.00 1 1014.4
20260903170726 86 90 3.0 7.0 0.00 0.00 0.00 1 1014.5
20260903170224 86 166 3.0 8.0 0.00 0.00 0.00 1 1014.4
20260903165725 85 90 3.0 11.0 0.00 0.00 0.00 1 1014.4
20260903165329 85 146 3.0 8.0 0.00 0.00 0.00 1 1014.3
20260903165227 85 198 2.0 11.0 0.00 0.00 0.00 1 1014.4
20260903165223 85 96 2.0 7.0 0.00 0.00 0.00 1 1014.3
20260903163721 84 95 3.0 10.0 0.00 0.00 0.00 1 1014.2
20260903163226 84 173 3.0 12.0 0.00 0.00 0.00 1 1014.2
20260903163221 84 173 4.0 12.0 0.00 0.00 0.00 1 1014.2
20260903162225 84 146 2.0 7.0 0.00 0.00 0.00 1 1014.1
20260903162221 84 151 3.0 10.0 0.00 0.00 0.00 1 1014.2
20260903161824 84 110 2.0 8.0 0.00 0.00 0.00 1 1014.2
20260903161324 84 117 3.0 7.0 0.00 0.00 0.00 1 1014.1
20260903160218 83 144 2.0 7.0 0.00 0.00 0.00 1 1014.0
20260903155719 83 85 3.0 9.0 0.00 0.00 0.00 1 1014.0
20260903155219 83 184 3.0 9.0 0.00 0.00 0.00 1 1014.0
20260903154719 83 163 2.0 7.0 0.00 0.00 0.00 1 1013.9
20260903154219 83 142 2.0 7.0 0.00 0.00 0.00 1 1013.9
20260903153717 83 117 2.0 7.0 0.00 0.00 0.00 1 1013.9
20260903153217 83 151 2.0 6.0 0.00 0.00 0.00 1 1013.7
20260903152716 83 112 2.0 6.0 0.00 0.00 0.00 1 1013.6
20260903152217 83 85 2.0 5.0 0.00 0.00 0.00 1 1013.6
20260903151717 82 165 2.0 5.0 0.00 0.00 0.00 1 1013.6
20260903151215 82 107 2.0 6.0 0.00 0.00 0.00 1 1013.6
20260903150714 82 149 2.0 9.0 0.00 0.00 0.00 1 1013.6
20260903150214 82 91 2.0 9.0 0.00 0.00 0.00 1 1013.6
20260903145712 82 99 2.0 5.0 0.00 0.00 0.00 1 1013.5
20260903145217 82 173 2.0 6.0 0.00 0.00 0.00 1 1013.5
20260903145213 82 172 2.0 6.0 0.00 0.00 0.00 1 1013.5
20260903144211 82 166 2.0 6.0 0.00 0.00 0.00 1 1013.5
20260903143710 82 101 1.0 6.0 0.00 0.00 0.00 1 1013.5
20260903143211 82 189 1.0 6.0 0.00 0.00 0.00 1 1013.5
20260903142711 82 86 1.0 6.0 0.00 0.00 0.00 1 1013.4
20260903142211 82 205 2.0 8.0 0.00 0.00 0.00 1 1013.3
20260903141713 82 166 3.0 7.0 0.00 0.00 0.00 1 1013.3
20260903141708 82 185 3.0 8.0 0.00 0.00 0.00 1 1013.3
20260903140709 82 182 3.0 7.0 0.00 0.00 0.00 1 1013.3
20260903140213 81 150 2.0 7.0 0.00 0.00 0.00 1 1013.4
20260903140209 82 202 2.0 6.0 0.00 0.00 0.00 1 1013.3
20260903135210 81 144 3.0 8.0 0.00 0.00 0.00 1 1013.3
20260903134707 81 192 3.0 8.0 0.00 0.00 0.00 1 1013.2
20260903134207 81 181 3.0 7.0 0.00 0.00 0.00 1 1013.2
20260903133813 81 150 2.0 7.0 0.00 0.00 0.00 1 1013.1
20260903133705 81 201 2.0 7.0 0.00 0.00 0.00 1 1013.2
20260903133209 81 187 2.0 6.0 0.00 0.00 0.00 1 1013.2
20260903133205 81 196 3.0 6.0 0.00 0.00 0.00 1 1013.2
20260903131703 81 155 3.0 8.0 0.00 0.00 0.00 1 1013.1
20260903131202 81 171 3.0 8.0 0.00 0.00 0.00 1 1013.1
20260903130702 80 174 3.0 9.0 0.00 0.00 0.00 1 1013.1
20260903130201 80 145 3.0 9.0 0.00 0.00 0.00 1 1013.0
20260903125701 80 153 2.0 8.0 0.00 0.00 0.00 1 1013.0
20260903125201 80 212 2.0 6.0 0.00 0.00 0.00 1 1013.0
20260903124700 80 153 3.0 6.0 0.00 0.00 0.00 1 1012.9
20260903124204 80 157 2.0 6.0 0.00 0.00 0.00 1 1012.9
20260903124200 80 143 2.0 6.0 0.00 0.00 0.00 1 1012.9
20260903123205 80 226 2.0 5.0 0.00 0.00 0.00 1 1012.8
20260903123201 80 193 2.0 6.0 0.00 0.00 0.00 1 1012.8
20260903122201 80 159 2.0 4.0 0.00 0.00 0.00 1 1012.7
20260903121658 80 182 2.0 8.0 0.00 0.00 0.00 1 1012.7
20260903121201 80 207 2.0 9.0 0.00 0.00 0.00 1 1012.7
20260903120659 80 157 2.0 9.0 0.00 0.00 0.00 1 1012.6
20260903120159 80 175 2.0 6.0 0.00 0.00 0.00 1 1012.5
20260903115658 80 130 3.0 7.0 0.00 0.00 0.00 1 1012.5
20260903115156 80 141 3.0 8.0 0.00 0.00 0.00 1 1012.5
20260903114656 80 198 3.0 8.0 0.00 0.00 0.00 1 1012.5
20260903114156 80 196 3.0 9.0 0.00 0.00 0.00 1 1012.4
20260903113656 80 185 3.0 9.0 0.00 0.00 0.00 1 1012.4
20260903113157 80 153 4.0 7.0 0.00 0.00 0.00 1 1012.2
20260903112654 80 168 3.0 7.0 0.00 0.00 0.00 1 1012.3
20260903112154 80 209 2.0 9.0 0.00 0.00 0.00 1 1012.4
20260903111657 80 170 3.0 11.0 0.00 0.00 0.00 1 1012.3
20260903111653 80 151 3.0 9.0 0.00 0.00 0.00 1 1012.4
20260903110652 80 193 3.0 11.0 0.00 0.00 0.00 1 1012.3
20260903110157 80 160 3.0 7.0 0.00 0.00 0.00 1 1012.3
20260903110153 80 200 3.0 7.0 0.00 0.00 0.00 1 1012.3
20260903105152 80 173 2.0 7.0 0.00 0.00 0.00 1 1012.3
20260903104650 80 169 3.0 8.0 0.00 0.00 0.00 1 1012.3
20260903104151 80 142 3.0 9.0 0.00 0.00 0.00 1 1012.3
20260903103650 80 196 3.0 9.0 0.00 0.00 0.00 1 1012.3
20260903103150 80 201 3.0 9.0 0.00 0.00 0.00 1 1012.4
20260903102653 80 167 3.0 9.0 0.00 0.00 0.00 1 1012.3
20260903102148 80 141 3.0 9.0 0.00 0.00 0.00 1 1012.3
20260903101646 79 167 3.0 11.0 0.00 0.00 0.00 1 1012.3
20260903101146 79 158 3.0 11.0 0.00 0.00 0.00 1 1012.3
20260903100645 79 194 3.0 7.0 0.00 0.00 0.00 1 1012.3
20260903100144 79 169 3.0 9.0 0.00 0.00 0.00 1 1012.3
20260903095643 79 206 3.0 9.0 0.00 0.00 0.00 1 1012.3
20260903095143 79 197 3.0 8.0 0.00 0.00 0.00 1 1012.3
20260903094641 79 182 3.0 8.0 0.00 0.00 0.00 1 1012.3
20260903094140 79 155 3.0 8.0 0.00 0.00 0.00 1 1012.3
20260903093640 79 204 2.0 8.0 0.00 0.00 0.00 1 1012.4
20260903093140 79 146 2.0 6.0 0.00 0.00 0.00 1 1012.4
20260903092640 79 169 2.0 6.0 0.00 0.00 0.00 1 1012.4
20260903092140 78 88 2.0 6.0 0.00 0.00 0.00 1 1012.4
20260903091639 78 177 2.0 9.0 0.00 0.00 0.00 1 1012.5
20260903091139 78 157 2.0 9.0 0.00 0.00 0.00 1 1012.5
20260903090639 78 165 3.0 8.0 0.00 0.00 0.00 1 1012.5
20260903090138 78 171 3.0 8.0 0.00 0.00 0.00 1 1012.4
20260903085638 78 117 2.0 6.0 0.00 0.00 0.00 1 1012.4
20260903085138 78 185 2.0 6.0 0.00 0.00 0.00 1 1012.4
20260903084640 78 157 2.0 6.0 0.00 0.00 0.00 1 1012.5
20260903084142 78 181 3.0 8.0 0.00 0.00 0.00 1 1012.5
20260903084137 78 155 2.0 6.0 0.00 0.00 0.00 1 1012.5
20260903083136 78 164 3.0 8.0 0.00 0.00 0.00 1 1012.4
20260903082636 78 159 3.0 8.0 0.00 0.00 0.00 1 1012.4
20260903082136 78 158 4.0 9.0 0.00 0.00 0.00 1 1012.5
20260903081636 78 223 4.0 9.0 0.00 0.00 0.00 1 1012.4
20260903081136 78 174 4.0 12.0 0.00 0.00 0.00 1 1012.4
20260903080639 78 157 3.0 10.0 0.00 0.00 0.00 1 1012.5
20260903080635 78 166 4.0 12.0 0.00 0.00 0.00 1 1012.5
20260903075638 78 153 3.0 6.0 0.00 0.00 0.00 1 1012.5
20260903075634 79 142 3.0 8.0 0.00 0.00 0.00 1 1012.6
20260903074634 79 186 3.0 9.0 0.00 0.00 0.00 1 1012.5
20260903074134 79 196 3.0 9.0 0.00 0.00 0.00 1 1012.6
20260903073634 79 182 3.0 9.0 0.00 0.00 0.00 1 1012.5
20260903073134 79 188 4.0 12.0 0.00 0.00 0.00 1 1012.5
20260903072634 79 256 4.0 12.0 0.00 0.00 0.00 1 1012.5
20260903072135 79 222 4.0 9.0 0.00 0.00 0.00 1 1012.5
20260903071638 79 189 3.0 7.0 0.00 0.00 0.00 1 1012.5
20260903071634 79 202 4.0 9.0 0.00 0.00 0.00 1 1012.5
20260903070635 79 178 2.0 5.0 0.00 0.00 0.00 1 1012.6
20260903070132 79 167 2.0 5.0 0.00 0.00 0.00 1 1012.7
20260903065632 79 172 2.0 5.0 0.00 0.00 0.00 1 1012.7
20260903065131 79 225 2.0 6.0 0.00 0.00 0.00 1 1012.7
20260903064629 80 169 2.0 6.0 0.00 0.00 0.00 1 1012.8
20260903064130 80 190 2.0 5.0 0.00 0.00 0.00 1 1012.9
20260903063630 80 167 2.0 6.0 0.00 0.00 0.00 1 1012.9
20260903063130 80 134 2.0 6.0 0.00 0.00 0.00 1 1012.9
20260903062630 80 150 2.0 6.0 0.00 0.00 0.00 1 1012.9
20260903062133 80 148 3.0 6.0 0.00 0.00 0.00 1 1013.0
20260903062129 80 189 2.0 6.0 0.00 0.00 0.00 1 1012.9
20260903061734 80 167 2.0 7.0 0.00 0.00 0.00 1 1012.9
20260903060628 80 139 2.0 7.0 0.00 0.00 0.00 1 1012.9
20260903060127 80 176 2.0 6.0 0.00 0.00 0.00 1 1012.9
20260903055630 80 171 2.0 6.0 0.00 0.00 0.00 1 1012.8
20260903055626 80 157 2.0 6.0 0.00 0.00 0.00 1 1012.9
20260903054625 80 194 2.0 6.0 0.00 0.00 0.00 1 1012.8
20260903054124 80 142 1.0 4.0 0.00 0.00 0.00 1 1013.0
20260903053627 81 182 2.0 4.0 0.00 0.00 0.00 1 1013.0
20260903053623 81 205 2.0 4.0 0.00 0.00 0.00 1 1013.0
20260903052624 81 178 1.0 3.0 0.00 0.00 0.00 1 1013.0
20260903052123 81 179 0.0 3.0 0.00 0.00 0.00 1 1013.0
20260903051624 81 142 0.0 1.0 0.00 0.00 0.00 1 1013.0
20260903051123 81 142 0.0 1.0 0.00 0.00 0.00 1 1013.0
20260903050622 82 142 0.0 2.0 0.00 0.00 0.00 1 1013.0
20260903050122 82 137 1.0 2.0 0.00 0.00 0.00 1 1012.9
20260903045621 82 172 1.0 3.0 0.00 0.00 0.00 1 1013.0
20260903045120 82 196 1.0 4.0 0.00 0.00 0.00 1 1013.1
20260903044619 82 163 1.0 4.0 0.00 0.00 0.00 1 1013.1
20260903044123 83 111 1.0 3.0 0.00 0.00 0.00 1 1013.2
20260903044118 83 159 1.0 2.0 0.00 0.00 0.00 1 1013.1
20260903043119 83 140 1.0 3.0 0.00 0.00 0.00 1 1013.2
20260903042619 83 96 1.0 3.0 0.00 0.00 0.00 1 1013.1
20260903042119 83 97 1.0 6.0 0.00 0.00 0.00 1 1013.2
20260903041722 84 93 1.0 3.0 0.00 0.00 0.00 1 1013.3
20260903041620 83 94 1.0 6.0 0.00 0.00 0.00 1 1013.2
20260903041616 83 168 1.0 3.0 0.00 0.00 0.00 1 1013.3
20260903040114 84 93 1.0 3.0 0.00 0.00 0.00 1 1013.4
20260903035616 84 84 1.0 3.0 0.00 0.00 0.00 1 1013.3
20260903035611 84 94 2.0 3.0 0.00 0.00 0.00 1 1013.3
20260903034611 84 86 1.0 4.0 0.00 0.00 0.00 1 1013.4
20260903034111 84 84 1.0 4.0 0.00 0.00 0.00 1 1013.4
20260903033612 84 78 1.0 4.0 0.00 0.00 0.00 1 1013.4
20260903033112 85 76 2.0 7.0 0.00 0.00 0.00 1 1013.4
20260903032610 85 141 2.0 7.0 0.00 0.00 0.00 1 1013.2
20260903032108 85 112 2.0 6.0 0.00 0.00 0.00 2 1013.2
20260903031611 85 94 2.0 6.0 0.00 0.00 0.00 4 1013.0
20260903031607 85 98 2.0 6.0 0.00 0.00 0.00 3 1013.1
20260903030611 85 87 2.0 7.0 0.00 0.00 0.00 8 1012.9
20260903030607 85 149 2.0 6.0 0.00 0.00 0.00 6 1013.0
20260903025604 86 99 2.0 7.0 0.00 0.00 0.00 9 1012.9
20260903025104 86 86 3.0 8.0 0.00 0.00 0.00 12 1012.8
20260903024604 86 101 3.0 8.0 0.00 0.00 0.00 14 1012.8